Other Surface Observations
Issued by NWS Charleston, SC

Home | Current Version | Previous Version | Text Only | Print | Product List | Glossary On
Versions: 1 2 3 4 5 6 7 8 9 10 11 12 13 14 15 16 17 18 19 20 21 22 23 24 25 26 27 28 29 30 31 32 33 34 35 36 37 38 39 40 41 42 43 44 45 46 47 48 49 50
501
SXUS52 KCHS 250027
OSOCHS

MARINE OBSERVATIONS
NATIONAL WEATHER SERVICE CHARLESTON SC
800 PM EDT WED MAY 24 2017

...DOWNTOWN CHARLESTON AND HARBOR...

CITY           SKY/WX    TMP DP  RH WIND       PRES   REMARKS
WATERFRONT PRK   N/A     75  72  90 S14       29.53F

...LAKE MOULTRIE...

CITY           SKY/WX    TMP DP  RH WIND       PRES   REMARKS
PINOPOLIS        N/A     72  70  94 VRB3      29.47F

...LAKE AND SUPPLEMENTAL COASTAL OBSERVATIONS...

STATION/POSITION TIME  TEMP    WIND        PRES    WAVE   SWELL
                       AIR SEA DIR/SP/G            HT/PER HT/PER/DIR
                 (UTC) (F)     (DEG/KT/KT) (MB)    (FT/S) (FT/S/D)
FORT PULASKI     0000   75     220/ 12/ 18 1001.0
SAPELO ISLAND    0000   74     220/ 13     1001.0
WINYAH BAY       2345   73     190/ 14     1002.0S
LAKE MURRAY      0020   70     160/  8/ 12  998.6
ACE BASIN NERRS  2345   75     180/  1     1001.0S


...C-MAN AND BUOY OBSERVATIONS...

STATION/POSITION TIME  TEMP    WIND        PRES    WAVE   SWELL
                       AIR SEA DIR/SP/G            HT/PER HT/PER/DIR
                 (UTC) (F)     (DEG/KT/KT) (MB)    (FT/S) (FT/S/D)
BUOY 41004       0010   76 76  180/ 17/ 21 1001.8
BUOY 41008       2350   76 78  200/ 19/ 27 1000.3F   4/ 5
FOLLY BEACH CMAN 0000   77     200/ 20/ 24 1001.4F
CAPERS NS BUOY   0008   79 77  210/ 19/ 29 1000.4F
FRIPP NS BUOY    0008   77 78  230/ 21/ 27 1000.0R
5E ST. MARYS GA  0000      78                N/A     4/ 5


STATION/POSITION TIME  TEMP    WIND        PRES    WAVE   SWELL
                       AIR SEA DIR/SP/G            HT/PER HT/PER/DIR
                 (UTC) (F)     (DEG/KT/KT) (MB)    (FT/S) (FT/S/D)
FRYING PAN BUOY  0010   74 77  170/ 16/ 21 1003.9
BUOY 41025       2350   77 75  200/ 14/ 21 1005.2F   4/ 7   3/190/ 7
CAPE LOOKOUT NC  0000   73     220/ 12/ 18 1005.3R
BUOY 41002       2350   78 77  180/ 17/ 21 1009.5R   8/ 8
BUOY 41010       0010   81 79  190/ 25/ 31 1006.5
ST AUGUSTINE FL  0000   73 77  200/ 11/ 14 1004.2R

$$




USA.gov is the U.S. government's official web portal to all federal, state and local government web resources and services.